SM7GXQ Weather Reports


time (UTC)temp
C
wind
direction
speed
KPH
gust
KPH
rain 1hr
cm
rain 24hr
cm
rain mn
cm
humidity
%
barometer
mb
20260508043005 6 60 4.8 8.0 0.00 0.00 0.00 79 1022.1
20260508040004 3 79 3.2 4.8 0.00 0.00 0.00 86 1021.7
20260508033005 1 79 0.0 1.6 0.00 0.00 0.00 86 1021.7
20260508031505 1 79 0.0 3.2 0.00 0.00 0.00 85 1021.5
20260508021504 1 78 0.0 3.2 0.00 0.00 0.00 84 1021.1
20260508020004 1 74 0.0 4.8 0.00 0.00 0.00 84 1020.9
20260508014504 1 74 1.6 4.8 0.00 0.00 0.00 86 1020.4
20260508013005 1 83 1.6 4.8 0.00 0.00 0.00 87 1020.4
20260508010004 1 92 1.6 8.0 0.00 0.00 0.00 88 1020.4
20260508003005 1 135 0.0 1.6 0.00 0.00 0.00 87 1020.2
20260508001504 1 135 0.0 1.6 0.00 0.00 0.00 86 1020.1
20260507234504 1 135 0.0 1.6 0.00 0.00 0.00 84 1020.1
20260507231504 2 135 1.6 3.2 0.00 0.00 0.00 83 1020.0
20260507230005 2 135 0.0 1.6 0.00 0.00 0.00 81 1020.3
20260507224505 2 135 1.6 3.2 0.00 0.00 0.00 80 1019.4
20260507223006 2 135 1.6 3.2 0.00 0.00 0.00 78 1019.4
20260507221504 2 135 1.6 3.2 0.00 0.00 0.00 77 1019.4
20260507214505 3 135 1.6 1.6 0.00 0.00 0.00 73 1018.6
20260507213006 3 135 0.0 1.6 0.00 0.00 0.00 71 1018.6
20260507210006 4 135 1.6 1.6 0.00 0.00 0.00 66 1018.6
20260507201504 5 135 1.6 4.8 0.00 0.00 0.00 59 1017.9
20260507200004 6 134 1.6 4.8 0.00 0.00 0.00 57 1017.9
20260507194504 6 134 0.0 4.8 0.00 0.00 0.00 54 1017.9
20260507193005 7 134 0.0 4.8 0.00 0.00 0.00 51 1017.9
20260507191505 7 134 1.6 8.0 0.00 0.00 0.00 51 1017.4
20260507181504 10 126 4.8 9.7 0.00 0.00 0.00 31 1017.2
20260507180005 11 147 4.8 9.7 0.00 0.00 0.00 22 1017.1
20260507174504 11 145 1.6 9.7 0.00 0.00 0.00 22 1016.6
20260507173005 11 196 1.6 8.0 0.00 0.00 0.00 25 1016.6
20260507171504 12 143 4.8 11.3 0.00 0.00 0.00 22 1016.6
20260507170005 12 136 4.8 9.7 0.00 0.00 0.00 20 1016.4
20260507164504 12 125 4.8 12.9 0.00 0.00 0.00 25 1016.2
20260507163005 12 141 4.8 11.3 0.00 0.00 0.00 21 1016.2
20260507153004 13 145 3.2 14.5 0.00 0.00 0.00 20 1015.8
20260507151504 13 122 6.4 19.3 0.00 0.00 0.00 18 1015.8
20260507144506 13 102 8.0 19.3 0.00 0.00 0.00 27 1015.4
20260507141504 13 105 9.7 27.4 0.00 0.00 0.00 27 1015.4
20260507140005 13 62 9.7 27.4 0.00 0.00 0.00 27 1015.3
20260507130005 13 68 4.8 24.1 0.00 0.00 0.00 35 1014.9
20260507124504 13 84 4.8 19.3 0.00 0.00 0.00 37 1014.9
20260507123005 13 53 8.0 19.3 0.00 0.00 0.00 36 1014.9
20260507121504 13 74 9.7 19.3 0.00 0.00 0.00 36 1014.8
20260507110005 12 331 12.9 19.3 0.00 0.00 0.00 34 1014.8
20260507100005 11 327 11.3 16.1 0.00 0.00 0.00 32 1014.5
20260507093004 11 338 9.7 14.5 0.00 0.00 0.00 30 1014.5
20260507083005 11 339 8.0 12.9 0.00 0.00 0.00 48 1014.2
20260507081504 10 9 8.0 12.9 0.00 0.00 0.00 51 1014.1
20260507064504 8 7 11.3 19.3 0.00 0.00 0.00 68 1013.7
20260507061504 8 0 11.3 16.1 0.00 0.00 0.00 72 1013.7
20260507060003 7 7 11.3 16.1 0.00 0.00 0.00 76 1013.7
20260507053005 7 346 9.7 14.5 0.00 0.00 0.00 81 1013.5